Regional Weather Roundup
Issued by NWS

Home | Current Version | Previous Version | Graphics & Text | Print | Product List | Glossary On
Versions: 1 2 3 4 5 6 7 8 9 10 11 12 13 14 15 16 17 18 19 20 21 22 23 24 25 26 27 28 29 30 31 32 33 34 35 36 37 38 39 40 41 42 43 44 45 46 47 48 49 50
092
ASUS45 KCYS 231510
RWRWY

WYOMING REGIONAL WEATHER ROUNDUP
NATIONAL WEATHER SERVICE CHEYENNE WY
900 AM MDT SAT SEP 23 2017

NOTE:  "FAIR" INDICATES FEW OR NO CLOUDS BELOW 12,000 FEET
WITH NO SIGNIFICANT WEATHER AND/OR OBSTRUCTIONS TO VISIBILITY.

WYZ001-231600-
YELLOWSTONE NATIONAL PARK

CITY           SKY/WX    TMP DP  RH WIND       PRES   REMARKS
LK YELLOWSTONE NOT AVBL
W YELLOWSTONE  NOT AVBL

$$
WYZ002>013-054>058-071-098>099-231600-
NORTHERN WYOMING

CITY           SKY/WX    TMP DP  RH WIND       PRES   REMARKS
JACKSON        FAIR      39  33  79 CALM      30.03R
CODY           MIX PCPN  36  36 100 N6        30.08R VSB 3/4 WCI  31
GREYBULL       CLOUDY    42  40  92 NW3       30.06S
WORLAND        CLOUDY    41  40  96 N6        30.05S
SHERIDAN       CLOUDY    43  41  93 NE7       30.06F
BUFFALO        CLOUDY    40  37  89 E6        30.06S
GILLETTE       CLOUDY    40  38  93 E6        30.06S
HULETT         CLOUDY    41  37  87 NE5       30.08S
NEWCASTLE      CLOUDY    41  41 100 SW8       30.09R

$$
WYZ014>020-022>026-101>103-231600-
CENTRAL WYOMING

CITY           SKY/WX    TMP DP  RH WIND       PRES   REMARKS
BIG PINEY      PTSUNNY   33  31  92 N7        30.02S WCI  27
PINEDALE       CLOUDY    32  32 100 NW7       30.02S WCI  26
DUBOIS         LGT SNOW  32  32 100 CALM      30.02R
LANDER           N/A    N/A N/A N/A MISG      30.02R
RIVERTON       CLOUDY    39  39 100 E7        30.03R WCI  34
CASPER         LGT RAIN  40  39  97 NE8       30.03R WCI  34
DOUGLAS        CLOUDY    43  40  89 CALM      30.04F

$$
WYZ021-027>030-104>119-231600-
SOUTHERN WYOMING

CITY           SKY/WX    TMP DP  RH WIND       PRES   REMARKS
EVANSTON       CLOUDY    33  32  96 N8        29.97S WCI  26
KEMMERER         N/A     32  32 100 N9        30.00  WCI  24
FORT BRIDGER   FOG       37  37 100 NE6       30.00F VSB 0   WCI  33
ROCK SPRINGS   PTSUNNY   37  35  92 NW5       29.98F WCI  33
DIXON          CLOUDY    43  39  85 SW7       29.99R
RAWLINS        CLOUDY    42  40  92 E12       29.96F
SARATOGA       DRIZZLE   41  41 100 E9G17     30.00F
LARAMIE        CLOUDY    43  38  82 S10       30.02R
CHEYENNE       CLOUDY    43  36  76 NE5       30.01S
TORRINGTON     CLOUDY    46  39  76 NE8       30.01S
PINE BLUFFS    CLOUDY    43  37  81 MISG      30.02S

$$




USA.gov is the U.S. government's official web portal to all federal, state and local government web resources and services.